This demonstration page uses our WeatherBlox Daily Observations layout. Learn more.

Left ArrowRight Arrow

36.19886, -115.1175

Hourly Observations for November 16, 2015

Temp ( °F °C ) Dew Point ( °F °C ) Humidity (%) Winds ( mph kmh ) Pressure ( in mb ) Visibility ( mi km ) Precip ( " mm )
12:53 am 00:53 Cloudy 48 8.9 34 1.1 58 58 N 22 35 29.66 1005 10 16 0.00 0.00
1:53 am 01:53 Cloudy 47 8.3 34 1.1 61 61 NW 7 11 29.66 1005 10 16 0.00 0.03
2:53 am 02:53 Clear 47 8.3 33 0.6 59 59 SSW 7 11 29.65 1004 10 16 0.00 0.00
3:53 am 03:53 Clear 48 8.9 26 -3.3 42 42 NNW 17 28 29.64 1004 10 16 0.00 0.00
4:53 am 04:53 Clear 48 8.9 23 -5 37 37 NNW 21 33 29.66 1004 10 16 0.00 0.00
5:53 am 05:53 Clear 48 8.9 23 -5 37 37 NNW 28 44 29.69 1006 10 16 0.00 0.00
6:53 am 06:53 Mostly Sunny 48 8.9 23 -5 37 37 NNW 22 35 29.73 1007 10 16 0.00 0.00
7:53 am 07:53 Sunny 49 9.4 22 -5.6 35 35 NNW 32 52 29.74 1007 10 16 0.00 0.00
8:53 am 08:53 Sunny 51 10.6 21 -6.1 31 31 NNW 35 56 29.76 1008 9 14 0.00 0.00
9:53 am 09:53 Sunny 51 10.6 19 -7.2 28 28 NNW 25 41 29.81 1009 10 16 0.00 0.00
10:53 am 10:53 Sunny 54 12.2 19 -7.2 25 25 NNW 31 50 29.81 1010 10 16 0.00 0.00
11:53 am 11:53 Sunny 56 13.3 17 -8.3 22 22 NNW 30 48 29.83 1010 10 16 0.00 0.00
12:53 pm 12:53 Sunny 57 13.9 13 -10.6 17 17 NNW 37 59 29.83 1010 10 16 0.00 0.00
1:53 pm 13:53 Sunny 58 14.4 12 -11.1 16 16 NNW 31 50 29.84 1011 10 16 0.00 0.00
2:53 pm 14:53 Sunny 57 13.9 10 -12.2 15 15 N 26 43 29.88 1012 10 16 0.00 0.00
3:53 pm 15:53 Sunny 56 13.3 12 -11.1 17 17 NNW 23 37 29.93 1014 10 16 0.00 0.00
4:53 pm 16:53 Clear 53 11.7 9 -12.8 17 17 NNW 26 43 29.97 1015 10 16 0.00 0.00
5:53 pm 17:53 Clear 51 10.6 9 -12.8 18 18 NNW 28 44 30.01 1016 10 16 0.00 0.00
6:53 pm 18:53 Clear 50 10 8 -13.3 18 18 NNW 26 43 30.05 1018 10 16 0.00 0.00
7:53 pm 19:53 Clear 49 9.4 8 -13.3 19 19 NNW 26 43 30.09 1019 10 16 0.00 0.00
8:53 pm 20:53 Clear 48 8.9 7 -13.9 19 19 NNW 24 39 30.11 1020 10 16 0.00 0.00
9:53 pm 21:53 Clear 47 8.3 7 -13.9 19 19 NNW 26 43 30.13 1020 10 16 0.00 0.00
10:53 pm 22:53 Clear 47 8.3 7 -13.9 19 19 NNW 16 26 30.18 1022 10 16 0.00 0.00
11:53 pm 23:53 Clear 46 7.8 7 -13.9 20 20 NNW 23 37 30.18 1022 10 16 0.00 0.00

Powered by AerisWeather